When you browse on this site, cookies collect data to enhance your experience and personalize the content and advertising you see.
Visit our Privacy Policy to learn more. By continuing to use the site, you agree to this use of cookies and data.
  • în România
  • Lista ţărilor
  • Pe 7 zile
  • Temperatura apei
  • Hartă satelitară
  • Meteo pe hartă
  • Widget-uri
  • user-avatar
    Intrare

    Meteo pe oră la Achenheim

    Astăzi, 20 Iulie, Sâmbătă

    Timp Temperatura Precipitaţii Vânt Presiune Umiditate
    00:00 +18°C° 0 mm 0 m/s 746 mmHg 85%
    01:00 +18°C° 0 mm 0 m/s 746 mmHg 86%
    02:00 +18°C° 0 mm 0 m/s 746 mmHg 86%
    03:00 +19°C° 0 mm 1 m/s 745 mmHg 87%
    04:00 +19°C° 0 mm 1 m/s 745 mmHg 87%
    05:00 +20°C° 0 mm 1 m/s 745 mmHg 85%
    06:00 +21°C° 0 mm 1 m/s 745 mmHg 83%
    07:00 +21°C° 0 mm 2 m/s 745 mmHg 81%
    08:00 +24°C° 0 mm 2 m/s 745 mmHg 74%
    09:00 +25°C° 0 mm 3 m/s 745 mmHg 67%
    10:00 +27°C° 0 mm 4 m/s 745 mmHg 60%
    11:00 +29°C° 0 mm 4 m/s 745 mmHg 54%
    12:00 +30°C° 0 mm 5 m/s 745 mmHg 49%
    13:00 +32°C° 0 mm 5 m/s 745 mmHg 43%
    14:00 +33°C° 0 mm 5 m/s 745 mmHg 44%
    15:00 +33°C° 0 mm 5 m/s 745 mmHg 44%
    16:00 +33°C° 0 mm 4 m/s 745 mmHg 45%
    17:00 +30°C° 0 mm 4 m/s 745 mmHg 50%
    18:00 +29°C° 0 mm 3 m/s 746 mmHg 56%
    19:00 +28°C° 0 mm 2 m/s 746 mmHg 61%
    20:00 +26°C° 0.8 mm 2 m/s 746 mmHg 68%
    21:00 +24°C° 0.8 mm 2 m/s 747 mmHg 76%
    22:00 +22°C° 0.8 mm 3 m/s 747 mmHg 83%
    23:00 +21°C° 0.2 mm 2 m/s 748 mmHg 86%

    Mâine, 21 Iulie, Duminică

    Timp Temperatura Precipitaţii Vânt Presiune Umiditate
    00:00 +20°C° 0.2 mm 2 m/s 748 mmHg 88%
    01:00 +20°C° 0.2 mm 2 m/s 748 mmHg 90%
    02:00 +20°C° 0 mm 2 m/s 748 mmHg 90%
    03:00 +20°C° 0 mm 2 m/s 749 mmHg 90%
    04:00 +19°C° 0 mm 2 m/s 749 mmHg 90%
    05:00 +20°C° 0.2 mm 2 m/s 749 mmHg 90%
    06:00 +20°C° 0.2 mm 2 m/s 750 mmHg 89%
    07:00 +21°C° 0.2 mm 2 m/s 750 mmHg 88%
    08:00 +23°C° 0.2 mm 2 m/s 750 mmHg 80%
    09:00 +25°C° 0.2 mm 2 m/s 751 mmHg 73%
    10:00 +26°C° 0.2 mm 2 m/s 751 mmHg 66%
    11:00 +27°C° 0.1 mm 2 m/s 751 mmHg 61%
    12:00 +28°C° 0.1 mm 2 m/s 751 mmHg 55%
    13:00 +29°C° 0.1 mm 2 m/s 751 mmHg 50%
    14:00 +29°C° 0 mm 2 m/s 751 mmHg 50%
    15:00 +29°C° 0 mm 2 m/s 751 mmHg 50%
    16:00 +29°C° 0 mm 2 m/s 752 mmHg 50%
    17:00 +28°C° 0 mm 2 m/s 752 mmHg 54%
    18:00 +27°C° 0 mm 2 m/s 752 mmHg 59%
    19:00 +26°C° 0 mm 2 m/s 752 mmHg 64%
    20:00 +25°C° 0 mm 1 m/s 752 mmHg 66%
    21:00 +23°C° 0 mm 1 m/s 752 mmHg 68%
    22:00 +22°C° 0 mm 1 m/s 753 mmHg 70%
    23:00 +21°C° 0 mm 1 m/s 753 mmHg 72%

    Poimâine, 22 Iulie, Luni

    Timp Temperatura Precipitaţii Vânt Presiune Umiditate
    00:00 +20°C° 0 mm 1 m/s 753 mmHg 73%
    01:00 +20°C° 0 mm 1 m/s 753 mmHg 75%
    02:00 +19°C° 0 mm 1 m/s 753 mmHg 77%
    03:00 +17°C° 0 mm 0 m/s 753 mmHg 78%
    04:00 +17°C° 0 mm 0 m/s 753 mmHg 79%
    05:00 +17°C° 0 mm 0 m/s 753 mmHg 77%
    06:00 +18°C° 0 mm 0 m/s 753 mmHg 75%
    07:00 +19°C° 0 mm 0 m/s 753 mmHg 73%
    08:00 +21°C° 0 mm 0 m/s 753 mmHg 68%
    09:00 +25°C° 0 mm 1 m/s 753 mmHg 62%
    10:00 +26°C° 0 mm 1 m/s 753 mmHg 57%
    11:00 +27°C° 0 mm 1 m/s 753 mmHg 53%
    12:00 +29°C° 0 mm 1 m/s 753 mmHg 50%
    13:00 +30°C° 0 mm 1 m/s 753 mmHg 46%
    14:00 +30°C° 0 mm 2 m/s 753 mmHg 45%
    15:00 +31°C° 0 mm 2 m/s 752 mmHg 43%
    16:00 +31°C° 0 mm 2 m/s 752 mmHg 42%
    17:00 +30°C° 0 mm 2 m/s 752 mmHg 47%
    18:00 +29°C° 0 mm 2 m/s 752 mmHg 53%
    19:00 +28°C° 0 mm 2 m/s 752 mmHg 58%
    20:00 +26°C° 0 mm 2 m/s 752 mmHg 60%
    21:00 +24°C° 0 mm 2 m/s 752 mmHg 62%
    22:00 +23°C° 0 mm 1 m/s 752 mmHg 64%
    23:00 +22°C° 0 mm 1 m/s 752 mmHg 67%

    23 Iulie, Marţi

    Timp Temperatura Precipitaţii Vânt Presiune Umiditate
    00:00 +22°C° 0 mm 1 m/s 752 mmHg 69%
    01:00 +21°C° 0 mm 1 m/s 752 mmHg 72%
    02:00 +21°C° 0 mm 1 m/s 751 mmHg 75%
    03:00 +20°C° 0 mm 1 m/s 751 mmHg 78%
    04:00 +20°C° 0 mm 1 m/s 751 mmHg 81%
    05:00 +21°C° 0 mm 1 m/s 751 mmHg 79%
    06:00 +21°C° 0 mm 1 m/s 751 mmHg 77%
    07:00 +22°C° 0 mm 1 m/s 751 mmHg 75%
    08:00 +24°C° 0 mm 1 m/s 751 mmHg 68%
    09:00 +26°C° 0 mm 1 m/s 751 mmHg 61%
    10:00 +28°C° 0 mm 2 m/s 751 mmHg 54%
    11:00 +30°C° 0 mm 2 m/s 751 mmHg 49%
    12:00 +31°C° 0 mm 2 m/s 750 mmHg 43%
    13:00 +34°C° 0 mm 2 m/s 750 mmHg 38%
    14:00 +34°C° 0 mm 2 m/s 750 mmHg 37%
    15:00 +35°C° 0 mm 2 m/s 749 mmHg 36%
    16:00 +35°C° 0 mm 2 m/s 749 mmHg 35%
    17:00 +32°C° 0 mm 2 m/s 749 mmHg 42%
    18:00 +31°C° 0 mm 2 m/s 749 mmHg 48%
    19:00 +29°C° 0 mm 2 m/s 749 mmHg 55%
    20:00 +28°C° 0 mm 2 m/s 749 mmHg 60%
    21:00 +26°C° 0 mm 1 m/s 749 mmHg 66%
    22:00 +24°C° 0 mm 1 m/s 749 mmHg 71%
    23:00 +23°C° 0 mm 1 m/s 749 mmHg 74%

    24 Iulie, Miercuri

    Timp Temperatura Precipitaţii Vânt Presiune Umiditate
    00:00 +23°C° 0 mm 1 m/s 749 mmHg 77%
    01:00 +22°C° 0 mm 1 m/s 749 mmHg 80%
    02:00 +22°C° 0 mm 1 m/s 748 mmHg 81%
    03:00 +21°C° 0 mm 1 m/s 748 mmHg 82%
    04:00 +21°C° 0 mm 1 m/s 748 mmHg 83%
    05:00 +22°C° 0 mm 1 m/s 748 mmHg 80%
    06:00 +23°C° 0 mm 1 m/s 748 mmHg 77%
    07:00 +24°C° 0 mm 1 m/s 748 mmHg 74%
    08:00 +26°C° 0 mm 1 m/s 748 mmHg 68%
    09:00 +28°C° 0 mm 1 m/s 748 mmHg 62%
    10:00 +30°C° 0 mm 1 m/s 748 mmHg 55%
    11:00 +31°C° 0 mm 1 m/s 748 mmHg 51%
    12:00 +33°C° 0 mm 1 m/s 748 mmHg 48%
    13:00 +34°C° 0 mm 1 m/s 748 mmHg 44%
    14:00 +35°C° 0 mm 1 m/s 748 mmHg 42%
    15:00 +35°C° 0 mm 1 m/s 747 mmHg 40%
    16:00 +35°C° 0 mm 1 m/s 747 mmHg 39%
    17:00 +34°C° 0 mm 1 m/s 747 mmHg 43%
    18:00 +33°C° 0 mm 1 m/s 747 mmHg 48%
    19:00 +32°C° 0 mm 1 m/s 747 mmHg 53%
    20:00 +30°C° 0 mm 1 m/s 747 mmHg 56%
    21:00 +28°C° 0 mm 1 m/s 747 mmHg 59%
    22:00 +26°C° 0 mm 1 m/s 748 mmHg 62%
    23:00 +25°C° 0 mm 1 m/s 748 mmHg 64%

    25 Iulie, Joi

    Timp Temperatura Precipitaţii Vânt Presiune Umiditate
    00:00 +23°C° 0 mm 0 m/s 748 mmHg 66%
    01:00 +22°C° 0 mm 0 m/s 747 mmHg 69%
    02:00 +21°C° 0 mm 0 m/s 747 mmHg 71%
    03:00 +21°C° 0 mm 0 m/s 747 mmHg 73%
    04:00 +20°C° 0 mm 0 m/s 747 mmHg 76%
    05:00 +21°C° 0 mm 0 m/s 747 mmHg 75%
    06:00 +22°C° 0 mm 0 m/s 747 mmHg 74%
    07:00 +23°C° 0 mm 0 m/s 747 mmHg 72%
    08:00 +27°C° 0 mm 1 m/s 747 mmHg 66%
    09:00 +29°C° 0 mm 1 m/s 748 mmHg 59%
    10:00 +31°C° 0 mm 1 m/s 748 mmHg 53%
    11:00 +32°C° 0 mm 1 m/s 747 mmHg 48%
    12:00 +34°C° 0 mm 1 m/s 747 mmHg 44%
    13:00 +35°C° 0 mm 1 m/s 747 mmHg 39%
    14:00 +36°C° 0 mm 1 m/s 747 mmHg 38%
    15:00 +36°C° 0 mm 1 m/s 747 mmHg 36%
    16:00 +36°C° 0 mm 1 m/s 746 mmHg 34%
    17:00 +35°C° 0 mm 1 m/s 746 mmHg 41%
    18:00 +34°C° 0 mm 1 m/s 746 mmHg 47%
    19:00 +32°C° 0 mm 1 m/s 746 mmHg 54%
    20:00 +31°C° 0 mm 1 m/s 747 mmHg 57%
    21:00 +29°C° 0 mm 1 m/s 747 mmHg 61%
    22:00 +28°C° 0 mm 1 m/s 747 mmHg 65%
    23:00 +27°C° 0 mm 1 m/s 747 mmHg 69%
    Arată mai mult